Total_Precipitation_Accumulation
1.02 0.99 0.89 0.71 0.60 0.55 0.55 0.50 0.41 0.37 0.36 0.36 0.31 0.32 0.39 0.37 0.33 0.36 0.36 0.32 0.29 0.26 0.24 0.22 0.24 0.28 0.25 0.24 0.30 0.33 0.34 0.35 0.29 0.27 0.15 0.11 0.14 0.14 0.17 0.09 0.04 0.03 0.03
0.80 0.72 0.62 0.49 0.43 0.47 0.47 0.39 0.29 0.28 0.28 0.32 0.31 0.28 0.37 0.46 0.47 0.44 0.40 0.34 0.29 0.23 0.18 0.16 0.17 0.20 0.23 0.26 0.30 0.30 0.32 0.34 0.30 0.28 0.23 0.18 0.21 0.20 0.22 0.19 0.13 0.09 0.09
0.78 0.63 0.57 0.51 0.49 0.49 0.42 0.33 0.24 0.23 0.25 0.27 0.37 0.33 0.35 0.41 0.48 0.46 0.39 0.33 0.27 0.21 0.16 0.15 0.14 0.15 0.21 0.24 0.29 0.35 0.36 0.34 0.32 0.26 0.29 0.31 0.27 0.25 0.25 0.22 0.19 0.19 0.18
1.02 0.80 0.68 0.63 0.54 0.45 0.35 0.29 0.26 0.29 0.33 0.31 0.29 0.28 0.33 0.39 0.45 0.41 0.34 0.31 0.26 0.20 0.19 0.17 0.15 0.15 0.16 0.20 0.26 0.37 0.44 0.46 0.43 0.36 0.34 0.36 0.33 0.29 0.24 0.23 0.26 0.27 0.26
0.72 0.52 0.45 0.42 0.37 0.30 0.24 0.21 0.20 0.21 0.21 0.23 0.19 0.18 0.22 0.30 0.32 0.27 0.23 0.21 0.22 0.20 0.18 0.17 0.17 0.14 0.12 0.14 0.15 0.25 0.34 0.45 0.50 0.51 0.46 0.41 0.36 0.30 0.26 0.26 0.26 0.31 0.28
0.35 0.28 0.24 0.20 0.17 0.15 0.15 0.13 0.10 0.08 0.09 0.14 0.13 0.14 0.17 0.19 0.21 0.17 0.17 0.19 0.21 0.22 0.19 0.17 0.18 0.14 0.10 0.08 0.07 0.09 0.13 0.21 0.32 0.41 0.47 0.44 0.43 0.38 0.34 0.30 0.25 0.24 0.26
0.07 0.06 0.06 0.06 0.06 0.05 0.05 0.05 0.05 0.06 0.06 0.08 0.08 0.12 0.14 0.11 0.09 0.07 0.17 0.27 0.27 0.21 0.16 0.19 0.22 0.19 0.14 0.15 0.14 0.11 0.12 0.11 0.11 0.17 0.26 0.32 0.35 0.38 0.32 0.26 0.22 0.23 0.27
0.01 0.01 0.01 0.02 0.03 0.03 0.04 0.04 0.02 0.02 0.03 0.06 0.07 0.13 0.12 0.07 0.05 0.05 0.12 0.20 0.26 0.23 0.16 0.17 0.24 0.28 0.30 0.26 0.20 0.17 0.18 0.18 0.12 0.08 0.14 0.21 0.23 0.28 0.29 0.27 0.24 0.20 0.19
0.00 0.00 0.00 0.00 0.01 0.01 0.01 0.01 0.00 0.00 0.01 0.05 0.07 0.09 0.06 0.02 0.02 0.03 0.07 0.20 0.27 0.26 0.20 0.22 0.28 0.33 0.41 0.34 0.20 0.21 0.23 0.21 0.16 0.13 0.10 0.11 0.13 0.17 0.21 0.24 0.25 0.22 0.20
0.00 0.00 0.00 0.00 0.00 0.01 0.01 0.00 0.00 0.00 0.00 0.01 0.03 0.04 0.03 0.03 0.02 0.01 0.03 0.11 0.18 0.22 0.23 0.26 0.33 0.32 0.35 0.28 0.15 0.25 0.34 0.29 0.20 0.21 0.23 0.23 0.21 0.25 0.29 0.29 0.35 0.36 0.34
0.00 0.00 0.00 0.00 0.00 0.01 0.03 0.02 0.01 0.01 0.00 0.00 0.00 0.01 0.01 0.01 0.01 0.01 0.02 0.03 0.04 0.08 0.12 0.15 0.14 0.16 0.16 0.16 0.17 0.25 0.34 0.23 0.16 0.23 0.31 0.32 0.29 0.26 0.27 0.29 0.33 0.39 0.43
0.00 0.00 0.00 0.01 0.01 0.02 0.05 0.03 0.02 0.01 0.00 0.01 0.01 0.01 0.01 0.01 0.01 0.01 0.01 0.01 0.01 0.03 0.05 0.07 0.05 0.06 0.08 0.10 0.13 0.19 0.20 0.14 0.15 0.21 0.22 0.18 0.19 0.17 0.14 0.14 0.17 0.22 0.24
0.00 0.00 0.00 0.00 0.01 0.02 0.02 0.02 0.02 0.01 0.01 0.01 0.02 0.02 0.03 0.03 0.02 0.01 0.01 0.01 0.01 0.01 0.01 0.02 0.01 0.02 0.03 0.07 0.10 0.12 0.13 0.17 0.20 0.19 0.18 0.13 0.11 0.09 0.08 0.09 0.12 0.13 0.14
0.00 0.00 0.00 0.00 0.01 0.02 0.01 0.01 0.01 0.01 0.01 0.01 0.02 0.02 0.04 0.06 0.02 0.00 0.01 0.01 0.02 0.02 0.03 0.04 0.03 0.03 0.04 0.07 0.12 0.13 0.16 0.20 0.21 0.19 0.14 0.11 0.09 0.08 0.08 0.08 0.09 0.09 0.10
0.00 0.00 0.00 0.00 0.01 0.02 0.01 0.00 0.00 0.00 0.00 0.01 0.01 0.02 0.02 0.02 0.01 0.01 0.01 0.02 0.04 0.04 0.06 0.10 0.16 0.21 0.18 0.18 0.21 0.22 0.25 0.22 0.18 0.18 0.16 0.14 0.14 0.13 0.10 0.06 0.05 0.05 0.06
0.00 0.00 0.00 0.00 0.01 0.01 0.02 0.01 0.00 0.00 0.01 0.01 0.00 0.01 0.01 0.01 0.01 0.03 0.07 0.06 0.06 0.06 0.09 0.13 0.24 0.35 0.34 0.34 0.33 0.33 0.34 0.30 0.25 0.20 0.17 0.14 0.12 0.11 0.10 0.08 0.06 0.07 0.09
0.00 0.00 0.00 0.00 0.00 0.00 0.01 0.02 0.02 0.01 0.00 0.00 0.00 0.00 0.00 0.01 0.02 0.03 0.06 0.08 0.10 0.16 0.14 0.19 0.36 0.40 0.35 0.35 0.36 0.35 0.30 0.23 0.18 0.13 0.09 0.06 0.04 0.04 0.04 0.05 0.05 0.05 0.04
0.00 0.00 0.00 0.00 0.00 0.00 0.00 0.00 0.01 0.03 0.04 0.03 0.01 0.00 0.00 0.00 0.01 0.02 0.04 0.07 0.13 0.18 0.20 0.32 0.45 0.47 0.40 0.31 0.23 0.17 0.13 0.09 0.06 0.04 0.02 0.02 0.01 0.01 0.01 0.01 0.01 0.01 0.01
0.00 0.00 0.00 0.00 0.00 0.00 0.00 0.00 0.00 0.01 0.01 0.03 0.03 0.02 0.01 0.01 0.01 0.01 0.02 0.05 0.07 0.09 0.15 0.24 0.32 0.38 0.31 0.16 0.06 0.03 0.02 0.02 0.02 0.01 0.01 0.01 0.01 0.01 0.01 0.01 0.01 0.01 0.01
0.00 0.00 0.00 0.00 0.00 0.00 0.00 0.00 0.00 0.00 0.01 0.01 0.01 0.01 0.02 0.02 0.02 0.01 0.01 0.02 0.03 0.04 0.04 0.07 0.09 0.09 0.05 0.02 0.01 0.01 0.00 0.00 0.00 0.00 0.00 0.01 0.01 0.01 0.01 0.02 0.02 0.03 0.03
0.00 0.00 0.00 0.00 0.00 0.00 0.00 0.01 0.01 0.01 0.01 0.01 0.00 0.00 0.00 0.01 0.01 0.01 0.01 0.01 0.01 0.01 0.01 0.01 0.01 0.01 0.00 0.00 0.00 0.00 0.00 0.00 0.00 0.00 0.01 0.01 0.01 0.01 0.02 0.02 0.02 0.02 0.02
0.00 0.00 0.00 0.00 0.00 0.00 0.00 0.00 0.01 0.01 0.01 0.01 0.01 0.00 0.00 0.01 0.01 0.01 0.01 0.01 0.01 0.01 0.01 0.01 0.00 0.00 0.00 0.00 0.00 0.00 0.00 0.00 0.00 0.00 0.01 0.01 0.01 0.01 0.01 0.01 0.01 0.01 0.01
0.00 0.00 0.00 0.00 0.00 0.00 0.00 0.00 0.00 0.01 0.01 0.01 0.01 0.01 0.00 0.01 0.01 0.01 0.01 0.01 0.01 0.00 0.00 0.00 0.00 0.00 0.00 0.00 0.00 0.00 0.00 0.00 0.01 0.01 0.01 0.01 0.02 0.02 0.01 0.01 0.01 0.00 0.00
0.00 0.00 0.00 0.00 0.00 0.00 0.00 0.00 0.00 0.00 0.00 0.01 0.01 0.01 0.01 0.01 0.01 0.01 0.01 0.01 0.00 0.00 0.00 0.00 0.00 0.00 0.00 0.00 0.00 0.00 0.00 0.00 0.00 0.01 0.01 0.01 0.02 0.01 0.01 0.01 0.01 0.01 0.00
0.00 0.00 0.00 0.00 0.00 0.00 0.00 0.00 0.00 0.00 0.00 0.00 0.01 0.01 0.01 0.01 0.01 0.01 0.00 0.00 0.00 0.00 0.00 0.00 0.00 0.00 0.00 0.00 0.00 0.00 0.01 0.01 0.01 0.00 0.00 0.01 0.01 0.01 0.01 0.01 0.01 0.00 0.00
0.00 0.00 0.00 0.00 0.00 0.00 0.00 0.00 0.00 0.00 0.00 0.01 0.01 0.01 0.01 0.01 0.01 0.01 0.00 0.00 0.00 0.00 0.00 0.00 0.00 0.00 0.00 0.00 0.00 0.00 0.00 0.00 0.00 0.00 0.00 0.00 0.00 0.00 0.00 0.00 0.00 0.00 0.00